This demonstration page uses our WeatherBlox Daily Observations layout. Learn more.

Left ArrowRight Arrow

40.92945, -100.16068

Hourly Observations for September 23, 2017

Temp ( °F °C ) Dew Point ( °F °C ) Humidity (%) Winds ( mph kmh ) Pressure ( in mb ) Visibility ( mi km ) Precip ( " mm )
12:15 am 00:15 Clear 79 26 60 15.7 53 53 SSE 17 28 29.65 1004 10 16 0.00 0.00
12:35 am 00:35 Clear 78 25.7 60 15.8 54 54 SSE 15 24 29.65 1004 10 16 0.00 0.00
12:55 am 00:55 Clear 77 25.1 61 16.1 57 57 SSE 16 26 29.65 1004 10 16 0.00 0.00
1:15 am 01:15 Clear 77 25 62 16.4 59 59 S 20 31 29.65 1004 10 16 0.00 0.00
1:35 am 01:35 Clear 77 25 62 16.7 60 60 S 15 24 29.65 1004 10 16 0.00 0.00
1:55 am 01:55 Clear 76 24.6 63 17 63 63 SSE 17 28 29.71 1006 10 16 0.00 0.00
2:15 am 02:15 Clear 76 24.4 63 17.2 64 64 S 15 24 29.71 1006 10 16 0.00 0.00
2:35 am 02:35 Clear 76 24.2 64 17.5 66 66 S 7 11 29.71 1006 10 16 0.00 0.00
2:55 am 02:55 Clear 73 22.9 63 17.1 70 70 N 9 15 29.74 1007 10 16 0.00 0.00
3:15 am 03:15 Clear 75 23.7 63 17.4 68 68 Calm 29.74 1007 10 16 0.00 0.00
3:35 am 03:35 Clear 74 23.6 63 17.4 68 68 Calm 29.77 1008 10 16 0.00 0.00
3:55 am 03:55 Mostly Cloudy 73 22.7 60 15.5 64 64 NE 5 7 29.77 1008 10 16 0.00 0.00
4:15 am 04:15 Cloudy 64 18 56 13.4 75 75 NE 9 15 29.83 1010 10 16 0.00 0.00
4:35 am 04:35 Cloudy 64 17.7 55 13 74 74 ENE 7 11 29.83 1010 10 16 0.00 0.00
4:55 am 04:55 Cloudy 64 17.7 56 13.1 75 75 NE 9 15 29.83 1010 10 16 0.00 0.00
5:15 am 05:15 Cloudy 64 17.6 55 13 75 75 NE 8 13 29.83 1010 10 16 0.00 0.00
5:35 am 05:35 Cloudy 63 17.2 55 12.5 74 74 NNE 14 22 29.83 1010 10 16 0.00 0.00
5:55 am 05:55 Cloudy 62 16.7 54 12 74 74 NE 10 17 29.83 1010 10 16 0.00 0.00
6:15 am 06:15 Cloudy 62 16.5 53 11.9 74 74 NE 9 15 29.85 1011 10 16 0.00 0.00
6:35 am 06:35 Cloudy 61 16.1 53 11.7 75 75 NE 8 13 29.85 1011 10 16 0.00 0.00
6:55 am 06:55 Cloudy 61 16 54 12 77 77 ENE 10 17 29.85 1011 10 16 0.00 0.00
7:15 am 07:15 Cloudy 61 16 54 12 77 77 ENE 7 11 29.85 1011 10 16 0.00 0.00
7:35 am 07:35 Cloudy 61 16 54 12.2 78 78 Calm 29.85 1011 10 16 0.00 0.00
7:55 am 07:55 Cloudy 61 16 54 12.2 78 78 Calm 29.85 1011 10 16 0.00 0.00
8:15 am 08:15 Cloudy 61 16.2 55 12.5 79 79 E 7 11 29.85 1011 10 16 0.00 0.00
8:35 am 08:35 Cloudy 62 16.7 55 13 79 79 E 8 13 29.85 1011 10 16 0.00 0.00
8:55 am 08:55 Cloudy 63 17.3 56 13.5 79 79 E 7 11 29.85 1011 10 16 0.00 0.00
9:15 am 09:15 Cloudy 64 17.5 57 13.7 79 79 ENE 6 9 29.85 1011 10 16 0.00 0.00
9:35 am 09:35 Cloudy 64 18 58 14.2 79 79 NE 3 6 29.85 1011 10 16 0.00 0.00
9:55 am 09:55 Cloudy 65 18.4 58 14.4 78 78 NE 6 9 29.85 1011 10 16 0.00 0.00
10:15 am 10:15 Cloudy 66 19.1 59 15 77 77 NNE 6 9 29.83 1010 10 16 0.00 0.00
10:35 am 10:35 Cloudy 67 19.2 58 14.7 75 75 NE 7 11 29.83 1010 10 16 0.00 0.00
10:55 am 10:55 Cloudy 67 19.7 60 15.3 76 76 NE 8 13 29.83 1010 10 16 0.00 0.00
11:15 am 11:15 Cloudy 68 20 59 14.9 73 73 NE 7 11 29.83 1010 10 16 0.00 0.00
11:35 am 11:35 Cloudy 69 20.7 60 15.4 72 72 NE 9 15 29.83 1010 10 16 0.00 0.00
11:55 am 11:55 Cloudy 71 21.5 60 15.8 70 70 NNE 8 13 29.83 1010 10 16 0.00 0.00
12:15 pm 12:15 Cloudy 73 22.7 62 16.4 68 68 NE 7 11 29.80 1009 10 16 0.00 0.00
12:35 pm 12:35 Cloudy 74 23.5 62 16.5 65 65 ENE 5 7 29.80 1009 10 16 0.00 0.00
12:55 pm 12:55 Cloudy 75 24 62 16.8 64 64 NNE 3 6 29.80 1009 10 16 0.00 0.00
1:15 pm 13:15 Cloudy 77 25.1 63 17.1 61 61 Calm 29.80 1009 10 16 0.00 0.00
1:35 pm 13:35 Cloudy 82 28 64 17.9 54 54 S 13 20 29.74 1007 10 16 0.00 0.00
1:55 pm 13:55 Cloudy 84 29 64 17.7 51 51 S 15 24 29.74 1007 10 16 0.00 0.00
2:15 pm 14:15 Cloudy 84 28.7 64 18 52 52 WNW 6 9 29.71 1006 10 16 0.00 0.00
2:35 pm 14:35 Cloudy with Nearby Thunderstorms 82 27.7 64 17.7 55 55 NW 7 11 29.68 1005 10 16 0.00 0.00
2:55 pm 14:55 Mostly Cloudy with Light Rain 81 27.4 68 19.9 64 64 Calm 29.68 1005 7 11 0.00 0.00
3:15 pm 15:15 Mostly Cloudy 82 27.6 66 18.7 58 58 NNE 14 22 29.65 1004 10 16 0.00 0.00
3:35 pm 15:35 Mostly Cloudy with Light Rain 75 23.9 65 18.2 71 71 NE 7 11 29.71 1006 10 16 0.00 0.00
3:55 pm 15:55 Cloudy 68 20 61 16 78 78 NW 20 31 29.77 1008 2 3 0.10 2.54
4:15 pm 16:15 Cloudy with Nearby Thunderstorms 67 19.3 63 17.2 88 88 WNW 21 33 29.80 1009 7 11 0.02 0.51
4:35 pm 16:35 Cloudy 61 16 58 14.2 89 89 NW 22 35 29.83 1010 5 8 0.06 1.52
4:55 pm 16:55 Cloudy 61 15.9 58 14.2 90 90 WNW 13 20 29.88 1012 3 4 0.21 5.33
5:15 pm 17:15 Cloudy with Nearby Thunderstorms 59 15 56 13.6 91 91 NNW 9 15 29.91 1013 1 2 0.06 1.52
5:35 pm 17:35 Cloudy with Rain 59 14.9 56 13.4 91 91 N 20 31 29.88 1012 7 11 0.07 1.78
5:55 pm 17:55 Cloudy with Strong Thunderstorms 57 14 55 12.6 91 91 N 14 22 29.88 1012 1 2 0.41 10.41
6:15 pm 18:15 Cloudy 57 14.1 55 13 93 93 N 10 17 29.85 1011 4 6 0.19 4.83
6:35 pm 18:35 Mostly Cloudy 58 14.2 56 13.1 93 93 NNE 6 9 29.88 1012 10 16 0.19 4.83
6:55 pm 18:55 Mostly Cloudy 58 14.5 56 13.3 93 93 NNE 6 9 29.85 1011 10 16 0.19 4.83
7:15 pm 19:15 Mostly Cloudy with Light Rain 58 14.4 56 13.1 92 92 NNE 8 13 29.85 1011 10 16 0.01 0.25
7:35 pm 19:35 Cloudy 57 14 55 12.7 92 92 NE 8 13 29.85 1011 10 16 0.01 0.25
7:55 pm 19:55 Cloudy with Light Rain 57 14 55 12.7 92 92 E 3 6 29.88 1012 10 16 0.01 0.25
8:15 pm 20:15 Mostly Cloudy 57 14 55 12.8 93 93 ENE 9 15 29.85 1011 10 16 0.05 1.27
8:35 pm 20:35 Cloudy 57 14 55 13 94 94 ENE 7 11 29.85 1011 10 16 0.05 1.27
8:55 pm 20:55 Cloudy 57 14.1 55 13 93 93 E 5 7 29.85 1011 10 16 0.05 1.27
9:15 pm 21:15 Mostly Cloudy 58 14.3 56 13.2 93 93 E 8 13 29.85 1011 10 16 0.00 0.00
9:35 pm 21:35 Cloudy 58 14.4 56 13.2 93 93 E 6 9 29.85 1011 10 16 0.00 0.00
9:55 pm 21:55 Cloudy 58 14.5 56 13.2 92 92 E 6 9 29.85 1011 10 16 0.00 0.00
10:15 pm 22:15 Cloudy 58 14.6 56 13.4 93 93 WNW 10 17 29.88 1012 10 16 0.00 0.00
10:35 pm 22:35 Cloudy 58 14.5 56 13.5 94 94 NNW 5 7 29.85 1011 10 16 0.00 0.00
10:55 pm 22:55 Cloudy 58 14.5 56 13.5 94 94 NW 6 9 29.85 1011 10 16 0.00 0.00
11:15 pm 23:15 Cloudy 58 14.5 56 13.5 94 94 NW 9 15 29.88 1012 10 16 0.00 0.00
11:35 pm 23:35 Cloudy 58 14.7 56 13.6 93 93 NW 9 15 29.88 1012 10 16 0.00 0.00
11:55 pm 23:55 Cloudy with Light Rain 58 14.7 56 13.6 93 93 N 6 9 29.88 1012 10 16 0.01 0.25

Powered by AerisWeather